Weather reports worldwide

Advertisment
Amsterdam Airport, Netherlands (6240): temperature & dewpoint: 15.02.2019 21:00:00 - 21.02.2019 21:00:00 (CET)Amsterdam Airport, Netherlands (6240): temperature 5cm: 15.02.2019 21:00:00 - 21.02.2019 21:00:00 (CET)Amsterdam Airport, Netherlands (6240): wind speed & gusts: 15.02.2019 21:00:00 - 21.02.2019 21:00:00 (CET)Amsterdam Airport, Netherlands (6240): wind direction: 15.02.2019 21:00:00 - 21.02.2019 21:00:00 (CET)Amsterdam Airport, Netherlands (6240): reduced air pressure: 15.02.2019 21:00:00 - 21.02.2019 21:00:00 (CET)Amsterdam Airport, Netherlands (6240): visibility: 15.02.2019 21:00:00 - 21.02.2019 21:00:00 (CET)Amsterdam Airport, Netherlands (6240): precipitation: 15.02.2019 21:00:00 - 21.02.2019 21:00:00 (CET)
Date & Time tt [°C] td [°C] tt 5cm [°C] ff [km/h] ff [kn] fx [km/h] fx [kn] dd ppp [hPa] vv [km] rr [mm]
21.02.2019 21:00:00 8,7 8,0 8,4 16 9 25 14 W 1029,3 8 0,0
21.02.2019 20:00:00 8,7 7,9 8,4 16 9 25 14 W 1028,9 7 0,0
21.02.2019 19:00:00 8,6 8,1 8,3 18 10 29 16 WSW 1028,3 5 0,0
21.02.2019 18:00:00 8,6 8,0 8,4 21 11 32 18 W 1027,5 5 0,0
21.02.2019 17:00:00 8,5 8,3 8,5 22 12 32 18 W 1026,9 2,4 0,0
21.02.2019 16:00:00 8,4 8,0 8,5 26 14 32 18 WSW 1026,7 1,7 0,5
21.02.2019 15:00:00 8,7 8,2 8,8 24 13 40 21 W 1026,3 2,8 0,0
21.02.2019 14:00:00 9,7 8,0 9,8 26 14 40 21 WSW 1026,0 9 0,0
21.02.2019 13:00:00 10,6 7,6 10,4 21 11 32 18 WSW 1025,6 10 0,0
21.02.2019 12:00:00 10,3 8,9 9,9 24 13 36 19 SW 1025,4 6 0,9
21.02.2019 11:00:00 9,4 8,0 9,4 18 10 32 18 WSW 1025,9 6 0,1
21.02.2019 10:00:00 8,6 6,7 8,5 18 10 25 14 SSW 1025,0 10 0,0
21.02.2019 09:00:00 7,4 5,9 6,9 16 9 29 16 SSW 1024,5 9 0,0
21.02.2019 08:00:00 6,9 5,3 6,1 21 11 25 14 SW 1023,8 10 0,0
21.02.2019 07:00:00 6,0 4,7 5,0 18 10 25 14 SSW 1023,3 10 0,0
21.02.2019 06:00:00 5,2 3,9 3,8 16 9 22 12 SSW 1023,7 10 0,0
21.02.2019 05:00:00 4,4 3,3 3,1 15 8 18 10 SSW 1023,6 10 0,0
21.02.2019 04:00:00 4,4 3,3 3,6 16 9 18 10 SSW 1023,7 10 0,0
21.02.2019 03:00:00 5,0 3,5 3,4 16 9 22 12 SSW 1024,0 10 0,0
21.02.2019 02:00:00 5,2 3,6 4,2 15 8 22 12 SSW 1023,8 10 0,0
21.02.2019 01:00:00 5,8 4,0 5,0 16 9 22 12 SSW 1023,4 10 0,0
21.02.2019 00:00:00 4,7 2,9 2,7 15 8 22 12 SSW 1023,2 10 0,0
20.02.2019 23:00:00 4,9 2,9 2,6 14 8 18 10 S 1023,0 19 0,0
20.02.2019 22:00:00 6,0 3,5 4,1 14 8 22 12 SSW 1023,0 20 0,0
20.02.2019 21:00:00 5,8 3,3 4,2 14 8 22 12 SSW 1023,0 25 0,0
20.02.2019 20:00:00 7,6 3,8 6,5 18 10 25 14 SSW 1022,7 34 0,0
20.02.2019 19:00:00 9,0 3,0 7,9 18 10 29 16 SSW 1022,4 43 0,0
20.02.2019 18:00:00 9,6 2,6 8,7 22 12 36 19 SW 1022,0 42 0,0
20.02.2019 17:00:00 10,5 2,0 9,8 25 14 40 21 WSW 1022,1 35 0,0
20.02.2019 16:00:00 10,9 2,5 10,8 32 18 - - WSW 1021,9 39 0,0
20.02.2019 15:00:00 11,6 3,0 12,6 29 16 43 23 WSW 1021,8 34 0,0
20.02.2019 14:00:00 12,0 4,2 13,3 26 14 43 23 WSW 1021,4 10 0,0
20.02.2019 13:00:00 11,1 5,1 11,7 26 14 36 19 SW 1021,5 10 0,0
20.02.2019 12:00:00 10,3 4,2 11,8 24 13 36 19 SW 1021,5 10 0,0
20.02.2019 11:00:00 8,2 4,8 9,1 22 12 32 18 SSW 1021,4 10 0,0
20.02.2019 10:00:00 6,8 4,7 6,6 21 11 29 16 SSW 1021,3 10 0,0
20.02.2019 09:00:00 6,0 4,4 5,5 18 10 25 14 SSW 1020,9 10 0,0
20.02.2019 08:00:00 5,4 3,8 4,6 16 9 25 14 SSW 1020,2 10 0,0
20.02.2019 07:00:00 4,9 3,8 4,4 18 10 25 14 SSW 1019,9 10 0,0
20.02.2019 06:00:00 5,4 4,5 4,8 13 7 22 12 SSW 1019,8 10 0,0
20.02.2019 05:00:00 5,7 4,7 5,1 16 9 29 16 SW 1019,6 10 0,0
20.02.2019 04:00:00 6,9 5,6 5,9 18 10 29 16 SW 1019,4 10 0,0
20.02.2019 03:00:00 6,7 5,5 6,0 21 11 32 18 SW 1019,7 10 0,0
20.02.2019 02:00:00 7,1 5,6 6,5 22 12 32 18 SW 1019,9 10 0,0
20.02.2019 01:00:00 6,8 5,4 6,1 21 11 29 16 SW 1019,9 10 0,0
20.02.2019 00:00:00 6,5 4,9 5,8 18 10 29 16 SW 1019,8 10 0,0
19.02.2019 23:00:00 6,9 4,9 6,0 22 12 32 18 SW 1019,7 10 0,0
19.02.2019 22:00:00 6,6 5,2 5,6 18 10 25 14 SW 1019,7 10 0,0
19.02.2019 21:00:00 6,8 5,2 5,9 21 11 29 16 SW 1019,5 10 0,0
19.02.2019 20:00:00 6,6 4,9 5,7 21 11 29 16 SW 1019,5 10 0,0
19.02.2019 19:00:00 7,2 4,8 6,1 22 12 36 19 WSW 1019,3 10 0,0
19.02.2019 18:00:00 7,0 4,8 6,3 24 13 36 19 WSW 1019,1 10 0,0
19.02.2019 17:00:00 7,6 5,1 7,3 26 14 43 23 WSW 1019,0 10 0,0
19.02.2019 16:00:00 8,9 5,6 8,6 31 17 43 23 WSW 1018,8 10 0,0
19.02.2019 15:00:00 9,0 5,5 9,4 31 17 47 25 WSW 1018,3 10 0,0
19.02.2019 14:00:00 8,7 5,6 8,9 29 16 43 23 WSW 1018,2 10 0,0
19.02.2019 13:00:00 8,6 5,6 9,0 29 16 43 23 WSW 1018,0 10 0,0
19.02.2019 12:00:00 8,3 5,9 8,3 26 14 40 21 WSW 1018,0 10 0,0
19.02.2019 11:00:00 8,2 6,1 8,4 28 15 40 21 WSW 1017,6 10 0,0
19.02.2019 10:00:00 7,6 5,6 7,4 24 13 36 19 WSW 1017,1 10 0,0
19.02.2019 09:00:00 6,6 5,2 5,7 22 12 32 18 SW 1016,7 10 0,0
19.02.2019 08:00:00 5,8 4,5 4,7 22 12 32 18 SW 1016,0 10 0,0
19.02.2019 07:00:00 5,7 4,4 4,4 21 11 32 18 SW 1015,5 10 0,0
19.02.2019 06:00:00 5,6 4,4 4,2 21 11 29 16 SW 1015,4 10 0,0
19.02.2019 05:00:00 6,0 4,6 5,0 21 11 29 16 SW 1015,2 10 0,0
19.02.2019 04:00:00 6,4 5,1 5,6 21 11 29 16 WSW 1015,0 10 0,0
19.02.2019 03:00:00 7,1 5,7 6,2 22 12 32 18 WSW 1015,1 10 0,0
19.02.2019 02:00:00 7,3 5,5 6,0 18 10 29 16 SW 1015,2 10 0,0
19.02.2019 01:00:00 7,2 5,7 6,6 18 10 25 14 WSW 1015,1 10 0,0
19.02.2019 00:00:00 7,4 6,2 7,0 21 11 36 19 WSW 1015,1 10 0,3
18.02.2019 23:00:00 8,1 7,1 7,7 22 12 32 18 W 1014,9 6 0,7
18.02.2019 22:00:00 9,0 7,1 8,1 16 9 25 14 SW 1014,4 10 0,0
18.02.2019 21:00:00 7,3 6,1 6,5 11 6 18 10 SSW 1014,3 10 0,0
18.02.2019 20:00:00 9,5 7,5 9,0 13 7 18 10 W 1014,7 10 0,0
18.02.2019 19:00:00 10,0 7,7 9,5 16 9 29 16 W 1015,0 10 0,0
18.02.2019 18:00:00 10,4 8,0 9,9 18 10 29 16 W 1014,7 10 0,0
18.02.2019 17:00:00 10,9 7,9 10,8 9 5 18 10 W 1014,6 10 0,0
18.02.2019 16:00:00 13,0 8,5 14,1 9 5 18 10 WSW 1014,8 10 0,0
18.02.2019 15:00:00 13,2 8,3 14,9 11 6 29 16 W 1015,0 10 0,0
18.02.2019 14:00:00 13,3 8,7 14,6 21 11 29 16 SSW 1015,7 10 0,0
18.02.2019 13:00:00 12,4 7,4 14,0 18 10 25 14 SSW 1016,4 10 0,0
18.02.2019 12:00:00 11,2 6,3 12,3 16 9 25 14 SSW 1016,9 10 0,0
18.02.2019 11:00:00 9,7 5,0 10,7 13 7 18 10 SSW 1017,3 10 0,0
18.02.2019 10:00:00 7,0 3,1 6,6 11 6 14 8 S 1017,5 10 0,0
18.02.2019 09:00:00 4,7 1,2 2,6 11 6 18 10 SSE 1017,4 10 0,0
18.02.2019 08:00:00 3,2 0,3 1,4 15 8 18 10 SSE 1017,6 10 0,0
18.02.2019 07:00:00 2,8 0,1 0,9 9 5 14 8 SSE 1017,6 10 0,0
18.02.2019 06:00:00 3,1 0,6 1,1 5 3 22 12 S 1017,8 10 0,0
18.02.2019 05:00:00 4,2 1,4 1,5 11 6 18 10 SSE 1017,8 10 0,0
18.02.2019 04:00:00 3,6 1,2 0,1 11 6 14 8 SSE 1018,0 10 0,0
18.02.2019 03:00:00 3,3 0,9 -0,4 8 4 11 6 SSE 1018,3 10 0,0
18.02.2019 02:00:00 4,2 1,6 -0,4 5 3 14 8 SSE 1018,5 10 0,0
18.02.2019 01:00:00 4,7 1,8 -0,1 9 5 11 6 SSE 1018,5 10 0,0
18.02.2019 00:00:00 5,2 1,7 0,1 9 5 11 6 S 1018,4 10 0,0
17.02.2019 23:00:00 5,4 1,9 0,9 13 7 14 8 S 1018,5 10 0,0
17.02.2019 22:00:00 6,8 2,2 2,2 9 5 22 12 S 1018,4 10 0,0
17.02.2019 21:00:00 7,4 2,7 5,0 16 9 22 12 S 1018,1 10 0,0
17.02.2019 20:00:00 8,5 3,4 5,6 15 8 18 10 S 1018,0 10 0,0
17.02.2019 19:00:00 8,0 3,6 4,6 11 6 22 12 S 1017,9 10 0,0
17.02.2019 18:00:00 9,8 4,1 7,5 13 7 25 14 SSE 1017,3 10 0,0
17.02.2019 17:00:00 12,7 4,9 11,1 16 9 29 16 SSE 1017,2 10 0,0
17.02.2019 16:00:00 13,9 4,9 13,2 18 10 29 16 S 1017,4 10 0,0
17.02.2019 15:00:00 14,0 5,2 13,7 22 12 32 18 SSE 1017,8 10 0,0
17.02.2019 14:00:00 13,9 4,9 14,6 21 11 29 16 S 1018,4 10 0,0
17.02.2019 13:00:00 12,9 4,7 13,6 18 10 25 14 S 1019,1 10 0,0
17.02.2019 12:00:00 10,5 3,7 11,1 16 9 22 12 SSE 1019,8 10 0,0
17.02.2019 11:00:00 8,8 3,8 9,1 16 9 25 14 SSE 1020,0 10 0,0
17.02.2019 10:00:00 6,2 2,9 5,5 13 7 22 12 SE 1020,3 10 0,0
17.02.2019 09:00:00 3,7 1,2 1,5 15 8 18 10 SSE 1020,5 10 0,0
17.02.2019 08:00:00 3,3 0,8 0,5 13 7 18 10 SSE 1020,6 10 0,0
17.02.2019 07:00:00 2,6 0,6 1,0 16 9 22 12 SSE 1020,8 10 0,0
17.02.2019 06:00:00 3,2 1,3 0,7 13 7 18 10 SSE 1021,3 10 0,0
17.02.2019 05:00:00 2,9 1,4 -0,9 8 4 11 6 SE 1021,7 9 0,0
17.02.2019 04:00:00 3,6 2,5 0,3 8 4 14 8 SE 1022,2 9 0,0
17.02.2019 03:00:00 3,5 2,5 1,1 11 6 14 8 SSE 1022,7 9 0,0
17.02.2019 02:00:00 4,2 3,2 0,6 9 5 14 8 SSE 1023,0 9 0,0
17.02.2019 01:00:00 4,1 3,1 0,6 9 5 14 8 S 1023,5 9 0,0
17.02.2019 00:00:00 4,6 3,3 1,1 8 4 11 6 SSE 1023,7 10 0,0
16.02.2019 23:00:00 4,8 3,6 1,8 9 5 14 8 S 1023,9 10 0,0
16.02.2019 22:00:00 7,2 5,2 2,3 11 6 14 8 S 1024,2 10 0,0
16.02.2019 21:00:00 6,1 4,5 2,7 11 6 14 8 S 1024,1 10 0,0
16.02.2019 20:00:00 6,5 4,9 1,7 9 5 14 8 SSE 1024,4 10 0,0
16.02.2019 19:00:00 6,6 4,7 3,4 8 4 14 8 S 1024,5 10 0,0
16.02.2019 18:00:00 7,9 5,7 6,5 13 7 18 10 SSW 1024,1 10 0,0
16.02.2019 17:00:00 11,1 6,8 10,0 13 7 18 10 SSW 1024,1 10 0,0
16.02.2019 16:00:00 12,5 7,0 12,5 13 7 22 12 SW 1024,4 10 0,0
16.02.2019 15:00:00 12,6 6,5 13,5 15 8 22 12 SSW 1024,6 10 0,0
16.02.2019 14:00:00 11,9 6,1 13,0 18 10 25 14 SSW 1024,7 10 0,0
16.02.2019 13:00:00 11,5 5,9 12,4 18 10 25 14 SSW 1024,7 10 0,0
16.02.2019 12:00:00 10,0 5,1 11,2 15 8 22 12 SSW 1025,0 10 0,0
16.02.2019 11:00:00 8,5 4,3 9,2 18 10 25 14 SSW 1024,7 10 0,0
16.02.2019 10:00:00 6,8 3,4 6,2 16 9 22 12 S 1024,7 10 0,0
16.02.2019 09:00:00 3,0 1,3 -0,1 8 4 14 8 SSE 1024,5 10 0,0
16.02.2019 08:00:00 1,7 0,1 0,4 9 5 18 10 S 1024,6 10 0,0
16.02.2019 07:00:00 2,5 0,6 1,0 15 8 18 10 S 1023,9 10 0,0
16.02.2019 06:00:00 2,4 0,6 0,8 15 8 18 10 S 1024,1 10 0,0
16.02.2019 05:00:00 1,8 0,2 -0,5 13 7 18 10 S 1024,1 10 0,0
16.02.2019 04:00:00 2,7 0,6 -0,4 9 5 18 10 S 1023,9 10 0,0
16.02.2019 03:00:00 3,2 0,7 -0,7 11 6 14 8 SSE 1024,4 10 0,0
16.02.2019 02:00:00 4,4 1,4 -0,5 8 4 11 6 S 1025,0 10 0,0
16.02.2019 01:00:00 4,9 1,6 1,4 8 4 22 12 S 1025,2 10 0,0
16.02.2019 00:00:00 5,5 1,9 1,8 13 7 18 10 SSE 1025,2 10 0,0
15.02.2019 23:00:00 6,9 2,2 1,7 8 4 18 10 S 1025,4 10 0,0
15.02.2019 22:00:00 6,6 1,9 2,0 9 5 18 10 SSE 1025,8 10 0,0
15.02.2019 21:00:00 7,2 1,4 2,4 8 4 18 10 SSE 1026,3 10 0,0

tt = temperature
td = dewpoint
tt 5cm = temperature 5cm
ff = wind speed
fx = gusts
dd = wind direction
ppp = reduced air pressure
vv = visibility
rr = precipitation

Next stations